Weather History for KPQL - July, 2013

Change the Weather History Date:

Tuesday, July 23, 2013

  Actual Average Record
Temperature  
Mean Temperature 84 °F -  
Max Temperature 91 °F 89 °F 101 °F (1981)
Min Temperature 78 °F 74 °F 69 °F (1988)
Cooling Degree Days 19    
Growing Degree Days 34 (Base 50)    
Moisture  
Dew Point 77 °F    
Average Humidity 81    
Maximum Humidity 97    
Minimum Humidity 61    
Precipitation  
Precipitation 0.00 in - - ()
Sea Level Pressure  
Sea Level Pressure 30.00 in    
Wind  
Wind Speed 4 mph (WSW)    
Max Wind Speed 10 mph    
Max Gust Speed 17 mph    
Visibility 9 miles    
Events      
Averages and records for this station are not official NWS values.
T = Trace of Precipitation, MM = Missing Value Source: NWS Daily Summary

Daily Weather History Graph

Daily Weather History Graph

Search for Another Location

Airport or City:

Trip Planner

Search our weather history database for the weather conditions in past years. The results will help you decide how hot, cold, wet, or windy it might be!

Date:

Astronomy

Jul. 23, 2013 Rise Set
Actual Time 6:07 AM CDT 7:53 PM CDT
Civil Twilight 5:40 AM CDT 8:20 PM CDT
Nautical Twilight 5:08 AM CDT 8:52 PM CDT
Astronomical Twilight 4:34 AM CDT 9:26 PM CDT
Moon 8:33 PM CDT (7/23) 7:06 AM CDT (7/23)
Length of Visible Light 14h 40m
Length of Day
13h 46m
Full, 99% of the Moon is Illuminated
Jul 23
Full
Jul 29
Last Quarter
Aug 6
New
Aug 14
First Quarter
Aug 20
Full

Hourly Weather History & Observations

Time (CDT) Temp. Heat Index Dew Point Humidity Pressure Visibility Wind Dir Wind Speed Gust Speed Precip Events Conditions
12:53 AM 80.1 °F 86.4 °F 78.1 °F 94% 30.01 in 10.0 mi SW 4.6 mph - N/A   Clear
1:53 AM 80.1 °F 86.4 °F 78.1 °F 94% 30.01 in 9.0 mi WSW 3.5 mph - N/A   Partly Cloudy
2:13 AM 80.6 °F 88.1 °F 78.8 °F 94% 30.00 in 9.0 mi Calm Calm - N/A   Mostly Cloudy
2:26 AM 80.6 °F 88.1 °F 78.8 °F 94% 30.00 in 9.0 mi Calm Calm - N/A   Scattered Clouds
2:53 AM 79.0 °F - 78.1 °F 97% 30.02 in 9.0 mi Calm Calm - N/A   Partly Cloudy
3:53 AM 78.1 °F - 77.0 °F 96% 30.02 in 7.0 mi Calm Calm - N/A   Clear
4:53 AM 78.1 °F - 77.0 °F 96% 30.03 in 8.0 mi Calm Calm - N/A   Clear
5:53 AM 78.1 °F - 77.0 °F 96% 30.04 in 8.0 mi Variable 3.5 mph - N/A   Clear
6:53 AM 79.0 °F - 77.0 °F 94% 30.04 in 7.0 mi Calm Calm - N/A   Clear
7:50 AM 80.6 °F 88.1 °F 78.8 °F 94% 30.04 in 8.0 mi Variable 3.5 mph - N/A   Mostly Cloudy
7:53 AM 81.0 °F 88.6 °F 78.1 °F 91% 30.04 in 8.0 mi Calm Calm - N/A   Mostly Cloudy
8:53 AM 82.9 °F 92.8 °F 78.1 °F 85% 30.06 in 9.0 mi Variable 4.6 mph - N/A   Mostly Cloudy
9:53 AM 86.0 °F 98.3 °F 78.1 °F 77% 30.06 in 10.0 mi West 8.1 mph - N/A   Partly Cloudy
10:53 AM 86.0 °F 96.0 °F 75.9 °F 72% 30.06 in 10.0 mi West 6.9 mph - N/A   Scattered Clouds
11:53 AM 87.1 °F 96.3 °F 75.0 °F 67% 30.04 in 10.0 mi Variable 6.9 mph - N/A   Partly Cloudy
12:51 PM 86.0 °F 95.1 °F 75.2 °F 70% 30.01 in 10.0 mi SW 6.9 mph - N/A   Overcast
12:53 PM 86.0 °F 96.9 °F 77.0 °F 74% 30.02 in 10.0 mi WSW 8.1 mph - N/A   Overcast
1:22 PM 89.6 °F 99.8 °F 75.2 °F 62% 30.01 in 10.0 mi West 10.4 mph 17.3 mph N/A   Scattered Clouds
1:53 PM 89.1 °F 100.2 °F 75.9 °F 65% 30.00 in 10.0 mi WSW 8.1 mph - N/A   Scattered Clouds
2:53 PM 89.1 °F 101.4 °F 77.0 °F 67% 29.98 in 10.0 mi WSW 9.2 mph 16.1 mph N/A   Partly Cloudy
3:53 PM 90.0 °F 100.2 °F 75.0 °F 61% 29.96 in 10.0 mi WSW 9.2 mph 16.1 mph N/A   Clear
4:53 PM 89.1 °F 98.0 °F 73.9 °F 61% 29.96 in 10.0 mi WSW 4.6 mph - N/A   Clear
5:53 PM 87.1 °F 96.3 °F 75.0 °F 67% 29.96 in 10.0 mi SW 5.8 mph - N/A   Clear
6:53 PM 87.1 °F 97.3 °F 75.9 °F 69% 29.93 in 10.0 mi SW 4.6 mph - N/A   Partly Cloudy
7:53 PM 84.0 °F 92.6 °F 75.9 °F 76% 29.94 in 10.0 mi SW 3.5 mph - N/A   Clear
8:53 PM 82.9 °F 91.8 °F 77.0 °F 82% 29.94 in 10.0 mi Calm Calm - N/A   Clear
9:53 PM 82.0 °F 90.2 °F 77.0 °F 85% 29.94 in 10.0 mi Calm Calm - N/A   Clear
10:53 PM 81.0 °F 87.9 °F 77.0 °F 88% 29.96 in 10.0 mi Calm Calm - N/A   Clear
11:53 PM 81.0 °F 87.9 °F 77.0 °F 88% 29.95 in 10.0 mi Variable 3.5 mph - N/A   Clear